Regional Weather Roundup
Issued by NWS

Home | Current Version | Previous Version | Graphics & Text | Print | Product List | Glossary On
Versions: 1 2 3 4 5 6 7 8 9 10 11 12 13 14 15 16 17 18 19 20 21 22 23 24 25 26 27 28 29 30 31 32 33 34 35 36 37 38 39 40 41 42 43 44 45 46 47 48 49 50
000
ASUS45 KBOU 281607
RWRCO

WEATHER ROUNDUP FOR COLORADO
NATIONAL WEATHER SERVICE DENVER/BOULDER CO
900 AM MST SAT FEB 28 2015

NOTE: "FAIR" INDICATES FEW OR NO CLOUDS BELOW 12000 FEET WITH NO
SIGNIFICANT WEATHER AND/OR OBSTRUCTIONS TO VISIBILITY.

COZ001>005-013-030-031-281700-
...NORTHWEST COLORADO...

CITY           SKY/WX    TMP DP  RH WIND       PRES   REMARKS
CRAIG          MOSUNNY   24  12  60 E14       29.79F WCI  12
HAYDEN         MOSUNNY   18   7  62 E9        29.79F WCI   6
MEEKER         MOSUNNY   20  10  65 E5        29.79R WCI  13
MOUNT WERNER   NOT AVBL
STEAMBOAT SPGS MOSUNNY    8   1  73 CALM      29.81S
WALDEN         SUNNY      3  -4  72 E3        29.80S
$$

COZ006>008-011-281700-
...WEST CENTRAL VALLEYS...

CITY           SKY/WX    TMP DP  RH WIND       PRES   REMARKS
GRAND JUNCTION CLOUDY    32  20  61 E15       29.79R WCI  22
MONTROSE       CLOUDY    23  16  74 SE5       29.82R WCI  17
EAGLE          PTSUNNY   21  12  68 CALM      29.86F
RIFLE          PTSUNNY   24  16  71 CALM      29.82S
DELTA          CLOUDY    27  21  78 CALM      29.82R
NUCLA          CLOUDY    28  21  74 CALM      29.82R
$$

COZ017>023-064>068-281700-
...SOUTHWEST COLORADO...

CITY           SKY/WX    TMP DP  RH WIND       PRES   REMARKS
DURANGO        LGT SNOW  27  24  89 E6        29.82R FOG     WCI  20
CORTEZ         HVY SNOW  31  29  92 W9        29.78R VSB 1/4 WCI  23
PAGOSA SPRINGS LGT SNOW  27  25  92 CALM      29.83S
TELLURIDE      LGT SNOW  23  20  88 NE3       29.76R
WOLF CREEK PAS LGT SNOW  12  12 100 SW10      29.80R VSB 3/4 WCI  -1
$$

COZ009-010-012-014-032>034-037-058>063-281700-
...CENTRAL COLORADO...

CITY           SKY/WX    TMP DP  RH WIND       PRES   REMARKS
ASPEN          MOSUNNY   16   6  65 CALM      29.77S
BUENA VISTA    CLOUDY    16   7  68 NW7       29.84S WCI   6
COPPER MTN     MOSUNNY   14   0  52 SE8       29.72S WCI   3
BERTHOUD PASS  FAIR       3  -4  72 CALM      29.73S
COTTONWOOD PAS CLOUDY    16  10  79 CALM      29.78R
GUNNISON       PTSUNNY   16   9  73 NE7       29.85S WCI   6
KREMMLING      MOSUNNY   16   3  57 CALM      29.86S
LEADVILLE      MOSUNNY    2   1  96 CALM      29.75F
SALIDA         CLOUDY    19  10  65 NW8       29.93R WCI   9
SUNLIGHT       PTSUNNY   14  10  85 CALM      29.74
WILKERSON PASS PTSUNNY   14   5  67 CALM      29.78R
$$

COZ069>075-281700-
...SAN LUIS VALLEY/SANGRE DE CRISTO MOUNTAINS...

CITY           SKY/WX    TMP DP  RH WIND       PRES   REMARKS
ALAMOSA        CLOUDY    20  15  81 S3        29.87R
LA VETA PASS   LGT SNOW  18  14  86 MISG      29.79S VSB 1
SAGUACHE       CLOUDY    23  19  86 SE6       29.86S WCI  16
$$

COZ035-036-038>040-281700-
...NORTHERN COLORADO FRONT RANGE...

CITY           SKY/WX    TMP DP  RH WIND       PRES   REMARKS
DENVER INTL AP PTSUNNY    9   5  84 W7        29.96R FOG     WCI  -2
DMNS CITY PARK   N/A     16  12  84 SW1       29.97S
AURORA         PTSUNNY    9   5  84 N5        29.95R FOG     WCI   0
FRONT RANGE AP NOT AVBL
ERIE MUNI ARPT SUNNY      9   7  92 CALM      29.99R FOG
BOULDER MUN AP SUNNY     14   9  79 CALM      29.97R
CENTENNIAL     PTSUNNY   10   7  87 N3        29.93R
BROOMFIELD     MOSUNNY    9   7  92 NW5       29.95R WCI   0
FORT COLLINS   SUNNY     10   9  92 CALM      30.00R
LONGMONT       SUNNY     17   8  67 S3        30.01R
$$

COZ041-046-047-076>085-087-088-281700-
...PIKES PEAK/PALMER DIVIDE AND SOUTHERN FOOTHILLS...

CITY           SKY/WX    TMP DP  RH WIND       PRES   REMARKS
COLO. SPRINGS  PTSUNNY   10   6  84 SE6       29.90R WCI   0
A. F. ACADEMY  SUNNY     14  10  85 CALM      29.85R
ELLICOTT       NOT AVBL
FALCON         MOSUNNY   16  11  80 CALM      29.85R
FORT CARSON    MOSUNNY    8   5  87 NW2       29.90R
LIMON          PTSUNNY    7   4  87 S5        29.97R WCI  -2
MONUMENT HILL  SUNNY     12   5  73 NW7       29.85R WCI   2
TRINIDAD       MOSUNNY   12   6  77 CALM      29.91R
$$

COZ042>045-048>051-090-091-281700-
...NORTHEAST COLORADO...

CITY           SKY/WX    TMP DP  RH WIND       PRES   REMARKS
GREELEY ARPT   SUNNY     10   1  67 CALM      30.01S
AKRON          CLOUDY    12   7  80 S9        30.01R WCI   0
BURLINGTON     CLOUDY    12   7  80 S14       30.06R HAZE    WCI  -3
WRAY           FLURRIES  17   9  71 SE12      30.12R WCI   4
STERLING       SUNNY     16   9  73 S6        30.06R WCI   7
HOLYOKE        NOT AVBL
FORT MORGAN    SUNNY     14   6  69 SE5       30.03R WCI   6
$$

COZ086-089-092>099-281700-
...SOUTHEAST COLORADO...

CITY           SKY/WX    TMP DP  RH WIND       PRES   REMARKS
PUEBLO         MOSUNNY   13   6  74 CALM      29.99S
LA JUNTA       MOSUNNY   14   8  77 CALM      30.04R
LAMAR          SUNNY     19  11  70 MISG      30.05R
SPRINGFIELD      N/A     16  12  84 S16       29.99S WCI   1
$$


USA.gov is the U.S. government's official web portal to all federal, state and local government web resources and services.